Regional Weather Roundup
Issued by NWS

Home | Current Version | Previous Version | Graphics & Text | Print | Product List | Glossary On
Versions: 1 2 3 4 5 6 7 8 9 10 11 12 13 14 15 16 17 18 19 20 21 22 23 24 25 26 27 28 29 30 31 32 33 34 35 36 37 38 39 40 41 42 43 44 45 46 47 48 49 50
000
ASUS43 KOAX 251710
RWRNE

WEATHER ROUNDUP FOR NEBRASKA
NATIONAL WEATHER SERVICE OMAHA NE
1100 AM CST TUE NOV 25 2014

NOTES: SATELLITE DATA IS BEING USED TO AUGMENT CLOUD COVER ABOVE
       12000 FEET.
       "FAIR" INDICATES FEW OR NO CLOUDS BELOW 12,000 FEET WITH NO
       SIGNIFICANT WEATHER AND/OR OBSTRUCTIONS TO VISIBILITY.

  * THESE STATIONS DO NOT REPORT WEATHER SUCH AS RAIN...SNOW OR FOG.

NEZ001>004-019>022-054>056-251800-
NEBRASKA PANHANDLE

CITY           SKY/WX    TMP DP  RH WIND       PRES   REMARKS
SCOTTSBLUFF    CLOUDY    40  21  46 W13       29.87F WCI  32
ALLIANCE       CLOUDY    36  17  46 SW16      29.86F WCI  26
CHADRON        CLOUDY    39  21  48 SW8       29.83F WCI  33
KIMBALL        CLOUDY    38  20  47 W15       29.88F WCI  30
SIDNEY         CLOUDY    37  16  42 SW14      29.92F WCI  28
$$

NEZ057>060-069>072-079>082-251800-
SOUTHWEST NEBRASKA

CITY           SKY/WX    TMP DP  RH WIND       PRES   REMARKS
NORTH PLATTE   CLOUDY    35  24  64 SW9       29.98F WCI  28
IMPERIAL       CLOUDY    35  20  54 S13       29.98F WCI  26
LEXINGTON      PTSUNNY   35  22  58 W9        30.04S WCI  28
MCCOOK         PTSUNNY   42  21  43 SW12      30.04F
OGALLALA       CLOUDY    31  25  77 W6        29.95F WCI  25
$$

NEZ005>010-023>029-035>040-094-251800-
NORTH CENTRAL NEBRASKA

CITY           SKY/WX    TMP DP  RH WIND       PRES   REMARKS
VALENTINE      CLOUDY    33  25  72 SW8       29.89F WCI  26
AINSWORTH      CLOUDY    32  24  72 S10       29.91F WCI  24
BROKEN BOW     CLOUDY    35  22  58 SW10      29.99F WCI  27
O`NEILL        PTSUNNY   38  29  70 SW9       29.97F WCI  32
ORD            PTSUNNY   35  23  61 S6        30.00F WCI  30
THEDFORD       CLOUDY    37  20  50 SW12      29.94F WCI  29
$$

NEZ041-046>049-061>064-073>077-083>087-251800-
SOUTH CENTRAL NEBRASKA

CITY           SKY/WX    TMP DP  RH WIND       PRES   REMARKS
GRAND ISLAND   SUNNY     37  25  61 SW9       30.06F WCI  30
AURORA         SUNNY     37  27  68 SW9       30.06F WCI  30
HASTINGS       SUNNY     37  25  61 SW8       30.06F WCI  31
HEBRON         SUNNY     38  24  57 SW8       30.12F WCI  32
HOLDREGE       PTSUNNY   36  22  57 SW7       30.05F WCI  30
KEARNEY *      MOSUNNY   36  23  60 SW8       30.06F WCI  29
YORK           SUNNY     37  27  65 SW12      30.07F WCI  30
$$

NEZ011>018-030>034-042>045-251800-
NORTHEAST NEBRASKA

CITY           SKY/WX    TMP DP  RH WIND       PRES   REMARKS
NORFOLK        SUNNY     37  26  64 SW12      30.03F WCI  29
ALBION         MOSUNNY   35  25  67 SW5       30.03F WCI  31
BLAIR          SUNNY     34  14  43 S13       30.10F WCI  25
COLUMBUS *     SUNNY     34  23  64 SW7       30.08F WCI  28
FREMONT        SUNNY     35  22  59 SE7       30.10F WCI  29
TEKAMAH        MOSUNNY   34  17  50 S10       30.11F WCI  26
WAYNE          SUNNY     33  22  64 S9        30.04F WCI  26
$$

NEZ050>053-065>068-078-088>093-251800-
SOUTHEAST NEBRASKA

CITY           SKY/WX    TMP DP  RH WIND       PRES   REMARKS
LINCOLN        SUNNY     36  24  62 S6        30.12F WCI  31
OMAHA EPPLEY   MOSUNNY   32  10  40 S8        30.14F WCI  25
BEATRICE       SUNNY     36  25  64 S7        30.12F WCI  30
FALLS CITY     SUNNY     35  10  35 SW8       30.17F WCI  29
NEBRASKA CITY  SUNNY     33  10  39 SW9       30.14F WCI  25
PLATTSMOUTH    SUNNY     33  11  40 S9        30.13F WCI  25
$$

NEZ044-045-051>053-067-251800-
OMAHA AREA

CITY           SKY/WX    TMP DP  RH WIND       PRES   REMARKS
OMAHA EPPLEY   MOSUNNY   32  10  40 S8        30.14F WCI  25
BLAIR          SUNNY     34  14  43 S13       30.10F WCI  25
FREMONT        SUNNY     35  22  59 SE7       30.10F WCI  29
MILLARD        SUNNY     34  15  46 S5        30.13F WCI  30
OFFUTT AFB     SUNNY     34  10  36 S9        30.13F WCI  26
PLATTSMOUTH    SUNNY     33  11  40 S9        30.13F WCI  25
WAHOO          FAIR      35  21  56 S8        30.09F WCI  29
$$



USA.gov is the U.S. government's official web portal to all federal, state and local government web resources and services.